ONEWEB-0692

operational
NORAD ID: 61600 Int'l Des: 2024-188 Owner: ONEWEBE Country: UK Constellation: oneweb
LEOCIRCULARPOLARONEWEB_TYPE

ONEWEB-0692について

説明を読み込み中...

リアルタイム位置

3D地球を読み込み中...

次回通過

高度履歴

Altitude vs Time

uPlot chart will show altitude changes over time

軌道要素

1 61600U 24188G 25251.52855347 .00000014 00000-0 36642-5 0 9991
2 61600 87.8766 77.2183 0001222 122.2282 237.8965 13.11415630 47557
Epoch: Sep 8, 2025 • Age: 15 hours

現在のステータス

高度 1228.6 km
速度 7.25 km/s
衛星直下点 65.87°N, 38.34°E
打ち上げ日 Oct 20, 2024
運用期間 0.8 years
タイプ internet

技術仕様

分類 Payload
質量 148.00 kg
乾燥質量 140.00 kg
総質量 148.00 kg
長さ 1.30 m
直径 1.00 m
スパン 5.00 m
形状 Trapezoid+2 pan
製造者 ONEWUS
バスタイプ ARROW
フェーズステータス In Orbit
所有者/国 ONEWEBE/UK

大規模コンステレーション

Loading constellations...